Starlink 34293

operational
NORAD ID: 64275 Int'l Des: 2025-120 Owner: SPXS Country: US Constellation: starlink
LEOCIRCULAR

Über Starlink 34293

Beschreibung wird geladen...

Live-Position

3D-Globus wird geladen...

Nächste Überflüge

Höhenverlauf

Altitude vs Time

uPlot chart will show altitude changes over time

Zweizeiliger Elementsatz

1 64275U 25120V 25307.38163586 .00014073 00000-0 48648-3 0 9999
2 64275 53.1600 343.6764 0001195 88.5135 271.6003 15.30191349 24517
Epoch: 3. Nov. 2025 • Age: 24 hours

Aktueller Status

Höhe 478.3 km
Geschwindigkeit 7.63 km/s
Subsatellitenpunkt 41.11°N, 63.65°W
Startdatum 4. Juni 2025
Alter 0.4 years
Typ internet

Technische Details

Klassifizierung Payload
Masse 575.00 kg
Trockenmasse 530.00 kg
Gesamtmasse 575.00 kg
Länge 0.30 m
Durchmesser 4.10 m
Spannweite 29.00 m
Form Box + pan
Hersteller SPXS
Bus-Typ Starlink V2MO
Phasenstatus In Orbit
Besitzer/Staat SPXS/US

Große Konstellationen

Loading constellations...